Hourly Data Report for October 01, 2019

All times are specified in Local Standard Time (LST). Add 1 hour to adjust for Daylight Saving Time where and when it is observed.

WOODSTOCK NEWBRIDGE
NEW BRUNSWICK
Current Station Operator: ECCC - MSC

46°09'08.000" N
67°32'34.000" W
154.00 m
8105603
71606
EWD

Download Data

Hourly Data (October 2019)
Hourly Data Report for October 1, 2019
TIME Temp Definition
°C
Dew Point Definition
°C
Rel Hum Definition
%
Wind Dir Definition
10's deg

Wind Spd Definition
km/h
Visibility Definition
km
Stn Press Definition
kPa
Hmdx Definition


Wind Chill Definition


Weather Definition


00:00 6.2 4.4 88 1 2   100.53     LegendNANA
01:00 6.2 4.8 91   0   100.55     LegendNANA
02:00 6.3 4.5 88 2 2   100.46     LegendNANA
03:00 5.8 4.6 92 0 1   100.36     LegendNANA
04:00 5.7 4.9 95   0   100.36     LegendNANA
05:00 5.4 3.9 91 13 2   100.30     LegendNANA
06:00 6.0 3.3 83 8 3   100.29     LegendNANA
07:00 6.2 3.2 82 11 4   100.28     LegendNANA
08:00 7.1 3.1 76 10 6   100.23     LegendNANA
09:00 8.4 3.5 71 9 9   100.21     LegendNANA
10:00 9.5 4.3 70 12 10   100.19     LegendNANA
11:00 9.8 5.2 73 12 8   100.09     LegendNANA
12:00 10.9 5.6 70 12 13   99.92     LegendNANA
13:00 10.9 4.9 67 16 10   99.87     LegendNANA
14:00 10.3 5.4 71 15 10   99.72     LegendNANA
15:00 9.7 6.7 81 13 10   99.63     LegendNANA
16:00 9.3 7.8 91 14 9   99.49     LegendNANA
17:00 9.0 8.5 97 13 8   99.42     LegendNANA
18:00 9.0 8.7 98 13 10   99.24     LegendNANA
19:00 9.5 9.2 98 15 7   99.13     LegendNANA
20:00 10.4 10.1 98 16 11   98.97     LegendNANA
21:00 11.1 10.9 99 17 8   98.82     LegendNANA
22:00 12.5 12.2 99 19 13   98.72     LegendNANA
23:00 13.0 12.5 97 20 9   98.70     LegendNANA

Notes on Data Quality.

Legend

  • E = Estimated
  • M = Missing
  • NA = Not Available
Date modified: